| time (UTC) | temp F | wind direction | speed MPH | gust MPH | rain 1hr in | rain 24hr in | rain mn in | humidity % | barometer mb |
| 20260503225016 | 77 | 203 | 4.0 | 10.0 | 0.00 | 0.00 | 0.00 | 37 | 1018.3 |
| 20260503224516 | 77 | 180 | 4.0 | 11.0 | 0.00 | 0.00 | 0.00 | 37 | 1018.5 |
| 20260503224016 | 77 | 180 | 4.0 | 11.0 | 0.00 | 0.00 | 0.00 | 36 | 1018.6 |
| 20260503223516 | 77 | 180 | 4.0 | 13.0 | 0.00 | 0.00 | 0.00 | 37 | 1018.6 |
| 20260503223016 | 78 | 158 | 3.0 | 9.0 | 0.00 | 0.00 | 0.00 | 36 | 1018.7 |
| 20260503222516 | 78 | 180 | 3.0 | 7.0 | 0.00 | 0.00 | 0.00 | 34 | 1018.8 |
| 20260503222016 | 78 | 180 | 5.0 | 13.0 | 0.00 | 0.00 | 0.00 | 34 | 1018.8 |
| 20260503221516 | 78 | 158 | 4.0 | 11.0 | 0.00 | 0.00 | 0.00 | 33 | 1018.9 |
| 20260503221036 | 78 | 180 | 3.0 | 9.0 | 0.00 | 0.00 | 0.00 | 36 | 1019.0 |
| 20260503220516 | 78 | 180 | 2.0 | 9.0 | 0.00 | 0.00 | 0.00 | 34 | 1019.0 |
| 20260503220016 | 78 | 203 | 4.0 | 9.0 | 0.00 | 0.00 | 0.00 | 36 | 1019.0 |
| 20260503215516 | 78 | 158 | 5.0 | 12.0 | 0.00 | 0.00 | 0.00 | 39 | 1019.1 |
| 20260503215016 | 78 | 158 | 4.0 | 9.0 | 0.00 | 0.00 | 0.00 | 38 | 1019.2 |
| 20260503214516 | 78 | 113 | 3.0 | 11.0 | 0.00 | 0.00 | 0.00 | 38 | 1019.3 |
| 20260503214016 | 78 | 203 | 2.0 | 8.0 | 0.00 | 0.00 | 0.00 | 39 | 1019.3 |
| 20260503213516 | 78 | 180 | 4.0 | 11.0 | 0.00 | 0.00 | 0.00 | 37 | 1019.5 |
| 20260503213016 | 78 | 158 | 4.0 | 13.0 | 0.00 | 0.00 | 0.00 | 36 | 1019.6 |
| 20260503212516 | 78 | 158 | 5.0 | 13.0 | 0.00 | 0.00 | 0.00 | 37 | 1019.7 |
| 20260503212016 | 77 | 158 | 5.0 | 10.0 | 0.00 | 0.00 | 0.00 | 37 | 1019.6 |
| 20260503211516 | 77 | 225 | 3.0 | 10.0 | 0.00 | 0.00 | 0.00 | 40 | 1019.7 |
| 20260503211016 | 77 | 225 | 3.0 | 10.0 | 0.00 | 0.00 | 0.00 | 37 | 1019.7 |
| 20260503210617 | 78 | 180 | 4.0 | 10.0 | 0.00 | 0.00 | 0.00 | 34 | 1020.1 |
| 20260503210016 | 79 | 225 | 3.0 | 9.0 | 0.00 | 0.00 | 0.00 | 36 | 1019.9 |
| 20260503205516 | 79 | 180 | 3.0 | 10.0 | 0.00 | 0.00 | 0.00 | 33 | 1020.2 |
| 20260503205016 | 79 | 225 | 5.0 | 12.0 | 0.00 | 0.00 | 0.00 | 36 | 1020.2 |
| 20260503204516 | 79 | 158 | 4.0 | 10.0 | 0.00 | 0.00 | 0.00 | 38 | 1020.2 |
| 20260503204036 | 79 | 180 | 4.0 | 13.0 | 0.00 | 0.00 | 0.00 | 34 | 1020.4 |
| 20260503203556 | 78 | 203 | 2.0 | 8.0 | 0.00 | 0.00 | 0.00 | 31 | 1020.4 |
| 20260503203016 | 79 | 225 | 3.0 | 12.0 | 0.00 | 0.00 | 0.00 | 36 | 1020.4 |
| 20260503202516 | 80 | 180 | 2.0 | 7.0 | 0.00 | 0.00 | 0.00 | 33 | 1020.7 |
| 20260503202016 | 82 | 135 | 4.0 | 10.0 | 0.00 | 0.00 | 0.00 | 31 | 1020.9 |
| 20260503201516 | 81 | 113 | 6.0 | 14.0 | 0.00 | 0.00 | 0.00 | 32 | 1021.0 |
| 20260503201016 | 81 | 135 | 4.0 | 12.0 | 0.00 | 0.00 | 0.00 | 31 | 1021.0 |
| 20260503200516 | 80 | 158 | 4.0 | 14.0 | 0.00 | 0.00 | 0.00 | 29 | 1021.0 |
| 20260503200036 | 82 | 113 | 4.0 | 10.0 | 0.00 | 0.00 | 0.00 | 34 | 1021.1 |
| 20260503195515 | 80 | 113 | 3.0 | 9.0 | 0.00 | 0.00 | 0.00 | 33 | 1021.2 |
| 20260503195036 | 80 | 158 | 5.0 | 13.0 | 0.00 | 0.00 | 0.00 | 32 | 1021.2 |
| 20260503194516 | 80 | 158 | 3.0 | 10.0 | 0.00 | 0.00 | 0.00 | 32 | 1021.2 |
| 20260503194016 | 81 | 158 | 4.0 | 11.0 | 0.00 | 0.00 | 0.00 | 32 | 1021.3 |
| 20260503193516 | 81 | 180 | 3.0 | 7.0 | 0.00 | 0.00 | 0.00 | 37 | 1021.4 |
| 20260503193016 | 79 | 225 | 4.0 | 10.0 | 0.00 | 0.00 | 0.00 | 33 | 1021.6 |
| 20260503192516 | 80 | 203 | 4.0 | 10.0 | 0.00 | 0.00 | 0.00 | 32 | 1021.6 |
| 20260503192015 | 81 | 135 | 3.0 | 10.0 | 0.00 | 0.00 | 0.00 | 31 | 1021.6 |
| 20260503191515 | 81 | 180 | 4.0 | 9.0 | 0.00 | 0.00 | 0.00 | 33 | 1021.7 |
| 20260503191036 | 81 | 135 | 4.0 | 11.0 | 0.00 | 0.00 | 0.00 | 32 | 1021.8 |
| 20260503190515 | 81 | 135 | 6.0 | 15.0 | 0.00 | 0.00 | 0.00 | 30 | 1022.0 |
| 20260503190015 | 80 | 158 | 4.0 | 9.0 | 0.00 | 0.00 | 0.00 | 36 | 1021.9 |
| 20260503185516 | 79 | 203 | 5.0 | 11.0 | 0.00 | 0.00 | 0.00 | 33 | 1022.0 |
| 20260503185016 | 80 | 135 | 4.0 | 10.0 | 0.00 | 0.00 | 0.00 | 31 | 1022.2 |
| 20260503184516 | 80 | 180 | 2.0 | 10.0 | 0.00 | 0.00 | 0.00 | 37 | 1022.3 |
| 20260503184036 | 80 | 158 | 4.0 | 11.0 | 0.00 | 0.00 | 0.00 | 37 | 1022.3 |
| 20260503183516 | 80 | 203 | 4.0 | 12.0 | 0.00 | 0.00 | 0.00 | 36 | 1022.3 |
| 20260503183015 | 79 | 225 | 4.0 | 11.0 | 0.00 | 0.00 | 0.00 | 36 | 1022.3 |
| 20260503182515 | 79 | 180 | 3.0 | 10.0 | 0.00 | 0.00 | 0.00 | 36 | 1022.5 |
| 20260503182016 | 80 | 135 | 3.0 | 7.0 | 0.00 | 0.00 | 0.00 | 33 | 1022.6 |
| 20260503181516 | 78 | 135 | 3.0 | 11.0 | 0.00 | 0.00 | 0.00 | 38 | 1022.7 |
| 20260503181015 | 78 | 225 | 4.0 | 9.0 | 0.00 | 0.00 | 0.00 | 39 | 1022.7 |
| 20260503180536 | 79 | 180 | 4.0 | 10.0 | 0.00 | 0.00 | 0.00 | 36 | 1022.8 |
| 20260503180015 | 79 | 180 | 4.0 | 13.0 | 0.00 | 0.00 | 0.00 | 36 | 1023.0 |
| 20260503175515 | 79 | 135 | 3.0 | 8.0 | 0.00 | 0.00 | 0.00 | 37 | 1023.0 |
| 20260503175015 | 79 | 203 | 5.0 | 14.0 | 0.00 | 0.00 | 0.00 | 33 | 1023.0 |
| 20260503174516 | 80 | 158 | 3.0 | 10.0 | 0.00 | 0.00 | 0.00 | 39 | 1023.2 |
| 20260503174015 | 79 | 113 | 3.0 | 9.0 | 0.00 | 0.00 | 0.00 | 37 | 1023.1 |
| 20260503173515 | 77 | 203 | 3.0 | 10.0 | 0.00 | 0.00 | 0.00 | 37 | 1023.1 |
| 20260503173015 | 78 | 180 | 3.0 | 9.0 | 0.00 | 0.00 | 0.00 | 34 | 1023.2 |
| 20260503172515 | 79 | 135 | 2.0 | 8.0 | 0.00 | 0.00 | 0.00 | 36 | 1023.4 |
| 20260503172016 | 79 | 158 | 3.0 | 8.0 | 0.00 | 0.00 | 0.00 | 34 | 1023.5 |
| 20260503171515 | 78 | 225 | 3.0 | 7.0 | 0.00 | 0.00 | 0.00 | 37 | 1023.5 |
| 20260503171036 | 77 | 225 | 2.0 | 7.0 | 0.00 | 0.00 | 0.00 | 40 | 1023.7 |
| 20260503170515 | 78 | 135 | 2.0 | 10.0 | 0.00 | 0.00 | 0.00 | 41 | 1023.8 |
| 20260503150515 | 71 | 225 | 2.0 | 6.0 | 0.00 | 0.00 | 0.00 | 55 | 1024.3 |
| 20260503131055 | 57 | 0.0 | 0.0 | 0.00 | 0.00 | 0.00 | 86 | 1023.5 | |
| 20260503130517 | 56 | 0.0 | 0.0 | 0.00 | 0.00 | 0.00 | 86 | 1023.5 | |
| 20260503110517 | 53 | 0.0 | 3.0 | 0.00 | 0.00 | 0.00 | 88 | 1022.5 | |
| 20260503081516 | 55 | 0.0 | 1.0 | 0.00 | 0.00 | 0.00 | 82 | 1022.5 | |
| 20260503081016 | 55 | 0.0 | 1.0 | 0.00 | 0.00 | 0.00 | 83 | 1022.5 | |
| 20260503080516 | 55 | 0.0 | 0.0 | 0.00 | 0.00 | 0.00 | 84 | 1022.4 | |
| 20260503072516 | 55 | 0.0 | 1.0 | 0.00 | 0.00 | 0.00 | 85 | 1022.7 | |
| 20260503072016 | 55 | 0.0 | 1.0 | 0.00 | 0.00 | 0.00 | 86 | 1022.8 | |
| 20260503071516 | 55 | 0.0 | 1.0 | 0.00 | 0.00 | 0.00 | 86 | 1022.8 | |
| 20260503071016 | 55 | 0.0 | 0.0 | 0.00 | 0.00 | 0.00 | 85 | 1022.9 | |
| 20260503070516 | 55 | 0.0 | 0.0 | 0.00 | 0.00 | 0.00 | 85 | 1022.9 | |
| 20260503055036 | 56 | 0.0 | 0.0 | 0.00 | 0.00 | 0.00 | 85 | 1022.9 | |
| 20260503054516 | 56 | 0.0 | 0.0 | 0.00 | 0.00 | 0.00 | 84 | 1022.9 | |
| 20260503054036 | 56 | 0.0 | 0.0 | 0.00 | 0.00 | 0.00 | 84 | 1022.6 | |
| 20260503053516 | 56 | 0.0 | 0.0 | 0.00 | 0.00 | 0.00 | 83 | 1022.8 | |
| 20260503053016 | 57 | 0.0 | 0.0 | 0.00 | 0.00 | 0.00 | 82 | 1022.9 | |
| 20260503052516 | 57 | 0.0 | 1.0 | 0.00 | 0.00 | 0.00 | 82 | 1023.0 | |
| 20260503052036 | 57 | 0.0 | 1.0 | 0.00 | 0.00 | 0.00 | 83 | 1022.9 | |
| 20260503051516 | 56 | 0.0 | 0.0 | 0.00 | 0.00 | 0.00 | 83 | 1022.9 | |
| 20260503051016 | 57 | 0.0 | 0.0 | 0.00 | 0.00 | 0.00 | 82 | 1022.9 | |
| 20260503050516 | 57 | 0.0 | 0.0 | 0.00 | 0.00 | 0.00 | 82 | 1022.9 | |
| 20260503050016 | 57 | 0.0 | 1.0 | 0.00 | 0.00 | 0.00 | 82 | 1022.7 | |
| 20260503045516 | 57 | 0.0 | 0.0 | 0.00 | 0.00 | 0.00 | 81 | 1022.8 | |
| 20260503045017 | 57 | 0.0 | 0.0 | 0.00 | 0.00 | 0.00 | 81 | 1022.8 | |
| 20260503044517 | 58 | 0.0 | 0.0 | 0.00 | 0.00 | 0.00 | 80 | 1022.8 | |
| 20260503044017 | 58 | 0.0 | 0.0 | 0.00 | 0.00 | 0.00 | 80 | 1022.8 | |
| 20260503043517 | 58 | 0.0 | 1.0 | 0.00 | 0.00 | 0.00 | 81 | 1022.9 | |
| 20260503043016 | 57 | 0.0 | 0.0 | 0.00 | 0.00 | 0.00 | 82 | 1022.7 | |
| 20260503042557 | 57 | 0.0 | 0.0 | 0.00 | 0.00 | 0.00 | 82 | 1022.8 | |
| 20260503042017 | 57 | 0.0 | 0.0 | 0.00 | 0.00 | 0.00 | 81 | 1022.7 | |
| 20260503041517 | 57 | 0.0 | 0.0 | 0.00 | 0.00 | 0.00 | 81 | 1022.6 | |
| 20260503041016 | 57 | 0.0 | 0.0 | 0.00 | 0.00 | 0.00 | 80 | 1022.6 | |
| 20260503040516 | 58 | 0.0 | 0.0 | 0.00 | 0.00 | 0.00 | 79 | 1022.6 | |
| 20260503040016 | 58 | 0.0 | 0.0 | 0.00 | 0.00 | 0.00 | 78 | 1022.7 | |
| 20260503035517 | 59 | 0.0 | 0.0 | 0.00 | 0.00 | 0.00 | 77 | 1022.7 | |
| 20260503035017 | 59 | 0.0 | 0.0 | 0.00 | 0.00 | 0.00 | 77 | 1022.8 | |
| 20260503034516 | 59 | 0.0 | 0.0 | 0.00 | 0.00 | 0.00 | 76 | 1022.6 | |
| 20260503034017 | 59 | 0.0 | 1.0 | 0.00 | 0.00 | 0.00 | 76 | 1022.7 | |
| 20260503033517 | 59 | 0.0 | 0.0 | 0.00 | 0.00 | 0.00 | 75 | 1022.5 | |
| 20260503033016 | 60 | 0.0 | 0.0 | 0.00 | 0.00 | 0.00 | 73 | 1022.6 | |
| 20260503032517 | 60 | 0.0 | 0.0 | 0.00 | 0.00 | 0.00 | 73 | 1022.4 | |
| 20260503032017 | 60 | 0.0 | 1.0 | 0.00 | 0.00 | 0.00 | 72 | 1022.4 | |
| 20260503031536 | 60 | 0.0 | 0.0 | 0.00 | 0.00 | 0.00 | 72 | 1022.4 | |
| 20260503031016 | 61 | 0.0 | 1.0 | 0.00 | 0.00 | 0.00 | 70 | 1022.2 | |
| 20260503030516 | 61 | 0.0 | 0.0 | 0.00 | 0.00 | 0.00 | 69 | 1022.3 | |
| 20260503030016 | 61 | 0.0 | 1.0 | 0.00 | 0.00 | 0.00 | 68 | 1022.3 | |
| 20260503025516 | 61 | 0.0 | 1.0 | 0.00 | 0.00 | 0.00 | 67 | 1022.3 | |
| 20260503025057 | 62 | 0.0 | 1.0 | 0.00 | 0.00 | 0.00 | 67 | 1022.3 | |
| 20260503024516 | 62 | 0.0 | 1.0 | 0.00 | 0.00 | 0.00 | 66 | 1022.0 | |
| 20260503024016 | 62 | 0.0 | 1.0 | 0.00 | 0.00 | 0.00 | 66 | 1021.9 | |
| 20260503023537 | 62 | 0.0 | 2.0 | 0.00 | 0.00 | 0.00 | 66 | 1021.7 | |
| 20260503023036 | 63 | 0.0 | 1.0 | 0.00 | 0.00 | 0.00 | 66 | 1021.5 | |
| 20260503022517 | 63 | 0.0 | 0.0 | 0.00 | 0.00 | 0.00 | 66 | 1021.5 | |
| 20260503022037 | 63 | 0.0 | 1.0 | 0.00 | 0.00 | 0.00 | 66 | 1021.4 | |
| 20260503021517 | 63 | 0.0 | 1.0 | 0.00 | 0.00 | 0.00 | 65 | 1021.4 | |
| 20260503021016 | 63 | 0.0 | 2.0 | 0.00 | 0.00 | 0.00 | 65 | 1021.5 | |
| 20260503020516 | 63 | 0.0 | 2.0 | 0.00 | 0.00 | 0.00 | 65 | 1021.5 | |
| 20260503020016 | 63 | 0.0 | 2.0 | 0.00 | 0.00 | 0.00 | 64 | 1021.4 | |
| 20260503015536 | 63 | 0.0 | 2.0 | 0.00 | 0.00 | 0.00 | 64 | 1021.4 | |
| 20260503015017 | 64 | 90 | 1.0 | 2.0 | 0.00 | 0.00 | 0.00 | 63 | 1021.3 |
| 20260503014536 | 64 | 0.0 | 1.0 | 0.00 | 0.00 | 0.00 | 62 | 1021.2 | |
| 20260503014016 | 64 | 0.0 | 1.0 | 0.00 | 0.00 | 0.00 | 60 | 1021.3 | |
| 20260503013517 | 64 | 0.0 | 1.0 | 0.00 | 0.00 | 0.00 | 60 | 1021.3 | |
| 20260503013016 | 65 | 0.0 | 2.0 | 0.00 | 0.00 | 0.00 | 59 | 1021.3 | |
| 20260503012516 | 65 | 0.0 | 1.0 | 0.00 | 0.00 | 0.00 | 58 | 1021.2 | |
| 20260503012016 | 66 | 0.0 | 1.0 | 0.00 | 0.00 | 0.00 | 57 | 1021.1 | |
| 20260503011516 | 66 | 0.0 | 1.0 | 0.00 | 0.00 | 0.00 | 57 | 1020.9 | |
| 20260503011016 | 66 | 0.0 | 1.0 | 0.00 | 0.00 | 0.00 | 57 | 1020.9 | |
| 20260503010516 | 67 | 0.0 | 1.0 | 0.00 | 0.00 | 0.00 | 55 | 1020.9 | |
| 20260503010016 | 68 | 0.0 | 1.0 | 0.00 | 0.00 | 0.00 | 54 | 1021.0 | |
| 20260503005516 | 68 | 90 | 1.0 | 2.0 | 0.00 | 0.00 | 0.00 | 51 | 1020.9 |
| 20260503005016 | 69 | 90 | 1.0 | 5.0 | 0.00 | 0.00 | 0.00 | 50 | 1021.0 |
| 20260503004537 | 69 | 90 | 1.0 | 5.0 | 0.00 | 0.00 | 0.00 | 49 | 1020.9 |
| 20260503004036 | 70 | 90 | 2.0 | 8.0 | 0.00 | 0.00 | 0.00 | 48 | 1020.9 |
| 20260503003516 | 70 | 113 | 2.0 | 5.0 | 0.00 | 0.00 | 0.00 | 47 | 1020.9 |
| 20260503003016 | 70 | 113 | 2.0 | 5.0 | 0.00 | 0.00 | 0.00 | 46 | 1021.0 |
| 20260503002516 | 70 | 90 | 3.0 | 5.0 | 0.00 | 0.00 | 0.00 | 46 | 1020.9 |
| 20260503002016 | 71 | 113 | 2.0 | 6.0 | 0.00 | 0.00 | 0.00 | 47 | 1020.8 |
| 20260503001516 | 71 | 90 | 2.0 | 4.0 | 0.00 | 0.00 | 0.00 | 46 | 1020.8 |
| 20260503001036 | 71 | 90 | 3.0 | 7.0 | 0.00 | 0.00 | 0.00 | 44 | 1020.7 |
| 20260503000516 | 72 | 68 | 3.0 | 8.0 | 0.00 | 0.00 | 0.00 | 43 | 1020.6 |
| 20260503000036 | 72 | 68 | 2.0 | 9.0 | 0.00 | 0.00 | 0.00 | 42 | 1020.8 |
| 20260502235516 | 72 | 90 | 3.0 | 6.0 | 0.00 | 0.00 | 0.00 | 41 | 1020.6 |
| 20260502235036 | 72 | 90 | 4.0 | 10.0 | 0.00 | 0.00 | 0.00 | 41 | 1020.6 |
| 20260502234516 | 72 | 45 | 4.0 | 10.0 | 0.00 | 0.00 | 0.00 | 41 | 1020.8 |
| 20260502234016 | 72 | 45 | 3.0 | 9.0 | 0.00 | 0.00 | 0.00 | 41 | 1020.8 |
| 20260502233516 | 72 | 45 | 3.0 | 6.0 | 0.00 | 0.00 | 0.00 | 41 | 1020.8 |
| 20260502233016 | 72 | 45 | 3.0 | 8.0 | 0.00 | 0.00 | 0.00 | 41 | 1020.8 |
| 20260502232516 | 72 | 68 | 2.0 | 6.0 | 0.00 | 0.00 | 0.00 | 40 | 1020.8 |
| 20260502232016 | 72 | 23 | 5.0 | 10.0 | 0.00 | 0.00 | 0.00 | 39 | 1020.7 |
| 20260502231516 | 72 | 90 | 2.0 | 8.0 | 0.00 | 0.00 | 0.00 | 41 | 1020.7 |
| 20260502231036 | 73 | 90 | 3.0 | 6.0 | 0.00 | 0.00 | 0.00 | 40 | 1020.8 |
| 20260502230516 | 73 | 90 | 5.0 | 10.0 | 0.00 | 0.00 | 0.00 | 41 | 1020.7 |
| 20260502230016 | 73 | 45 | 3.0 | 7.0 | 0.00 | 0.00 | 0.00 | 42 | 1020.7 |
| 20260502225516 | 73 | 45 | 1.0 | 6.0 | 0.00 | 0.00 | 0.00 | 41 | 1020.6 |